Time,TemperatureF,DewpointF,PressureIn,WindDirection,WindDirectionDegrees,WindSpeedMPH,WindSpeedGustMPH,Humidity,HourlyPrecipIn,Conditions,Clouds,dailyrainin,SoftwareType,DateUTC
2013-02-19 00:00:00,50.5,28.2,29.80,SSE,161,11.0,11.0,42,0.00,,,0.00,Wunderground v.1.15,2013-02-19 08:00:00,
2013-02-19 00:06:00,50.3,28.1,29.80,South,190,9.0,11.0,42,0.00,,,0.00,Wunderground v.1.15,2013-02-19 08:06:00,
2013-02-19 00:12:00,50.2,28.5,29.80,South,184,10.0,12.0,43,0.00,,,0.00,Wunderground v.1.15,2013-02-19 08:12:00,
2013-02-19 00:18:00,50.2,28.5,29.79,South,173,13.0,16.0,43,0.00,,,0.00,Wunderground v.1.15,2013-02-19 08:18:00,
2013-02-19 00:24:00,50.2,28.5,29.79,South,178,14.0,15.0,43,0.00,,,0.00,Wunderground v.1.15,2013-02-19 08:24:00,
2013-02-19 00:30:00,50.1,29.0,29.79,South,171,14.0,15.0,44,0.00,,,0.00,Wunderground v.1.15,2013-02-19 08:30:00,
2013-02-19 00:36:00,49.9,29.4,29.79,South,182,15.0,16.0,45,0.00,,,0.00,Wunderground v.1.15,2013-02-19 08:36:00,
2013-02-19 00:42:00,49.8,29.8,29.79,South,180,15.0,15.0,46,0.00,,,0.00,Wunderground v.1.15,2013-02-19 08:42:00,
2013-02-19 00:48:00,49.8,29.8,29.79,South,184,14.0,15.0,46,0.00,,,0.00,Wunderground v.1.15,2013-02-19 08:48:00,
2013-02-19 00:54:00,49.8,30.4,29.79,South,173,13.0,14.0,47,0.00,,,0.00,Wunderground v.1.15,2013-02-19 08:54:00,
2013-02-19 01:00:00,49.8,29.8,29.78,South,169,14.0,15.0,46,0.00,,,0.00,Wunderground v.1.15,2013-02-19 09:00:00,
2013-02-19 01:06:00,49.8,30.4,29.78,South,175,14.0,15.0,47,0.00,,,0.00,Wunderground v.1.15,2013-02-19 09:06:00,
2013-02-19 01:12:00,49.5,30.6,29.78,South,182,14.0,18.0,48,0.00,,,0.00,Wunderground v.1.15,2013-02-19 09:12:00,
2013-02-19 01:18:00,49.2,30.8,29.78,South,178,15.0,18.0,49,0.00,,,0.00,Wunderground v.1.15,2013-02-19 09:18:00,
2013-02-19 01:24:00,49.0,31.2,29.78,South,188,17.0,20.0,50,0.00,,,0.00,Wunderground v.1.15,2013-02-19 09:24:00,
2013-02-19 01:30:00,48.6,31.8,29.78,South,175,17.0,17.0,52,0.00,,,0.00,Wunderground v.1.15,2013-02-19 09:30:00,
2013-02-19 01:36:00,48.3,31.5,29.78,South,175,17.0,17.0,52,0.00,,,0.00,Wunderground v.1.15,2013-02-19 09:36:00,
2013-02-19 01:42:00,48.1,31.8,29.77,South,186,17.0,17.0,53,0.00,,,0.00,Wunderground v.1.15,2013-02-19 09:42:00,
2013-02-19 01:48:00,48.3,31.5,29.77,South,180,17.0,20.0,52,0.00,,,0.00,Wunderground v.1.15,2013-02-19 09:48:00,
2013-02-19 01:54:00,48.6,31.3,29.76,South,178,18.0,18.0,51,0.00,,,0.00,Wunderground v.1.15,2013-02-19 09:54:00,
2013-02-19 02:00:00,48.8,31.0,29.76,SSW,192,18.0,19.0,50,0.00,,,0.00,Wunderground v.1.15,2013-02-19 10:00:00,
2013-02-19 02:06:00,48.8,30.5,29.76,SSW,194,17.0,22.0,49,0.00,,,0.00,Wunderground v.1.15,2013-02-19 10:06:00,
2013-02-19 02:12:00,49.4,31.0,29.75,South,186,19.0,27.0,49,0.00,,,0.00,Wunderground v.1.15,2013-02-19 10:12:00,
2013-02-19 02:18:00,49.2,31.8,29.75,South,186,20.0,27.0,51,0.00,,,0.00,Wunderground v.1.15,2013-02-19 10:18:00,
2013-02-19 02:24:00,49.6,31.7,29.75,South,188,21.0,25.0,50,0.00,,,0.00,Wunderground v.1.15,2013-02-19 10:24:00,
2013-02-19 02:30:00,49.7,32.3,29.74,SSW,196,21.0,23.0,51,0.00,,,0.00,Wunderground v.1.15,2013-02-19 10:30:00,
2013-02-19 02:36:00,49.8,31.9,29.74,SSW,199,22.0,29.0,50,0.00,,,0.00,Wunderground v.1.15,2013-02-19 10:36:00,
2013-02-19 02:42:00,49.5,32.6,29.74,South,188,22.0,26.0,52,0.00,,,0.00,Wunderground v.1.15,2013-02-19 10:42:00,
2013-02-19 02:48:00,49.2,32.8,29.73,SSW,197,23.0,26.0,53,0.00,,,0.00,Wunderground v.1.15,2013-02-19 10:48:00,
2013-02-19 02:54:00,48.6,32.7,29.73,SSW,200,24.0,29.0,54,0.00,,,0.00,Wunderground v.1.15,2013-02-19 10:54:00,
2013-02-19 03:00:00,48.1,33.1,29.74,South,186,24.0,24.0,56,0.00,,,0.00,Wunderground v.1.15,2013-02-19 11:00:00,
2013-02-19 03:06:00,47.6,32.7,29.74,SSW,211,22.0,24.0,56,0.00,,,0.00,Wunderground v.1.15,2013-02-19 11:06:00,
2013-02-19 03:12:00,47.6,33.1,29.73,SSW,198,21.0,23.0,57,0.00,,,0.00,Wunderground v.1.15,2013-02-19 11:12:00,
2013-02-19 03:18:00,47.0,33.0,29.73,SSW,200,24.0,25.0,58,0.00,,,0.00,Wunderground v.1.15,2013-02-19 11:18:00,
2013-02-19 03:24:00,46.6,32.6,29.73,South,182,23.0,25.0,58,0.00,,,0.00,Wunderground v.1.15,2013-02-19 11:24:00,
2013-02-19 03:30:00,46.4,32.4,29.73,SSW,198,22.0,22.0,58,0.00,,,0.00,Wunderground v.1.15,2013-02-19 11:30:00,
2013-02-19 03:36:00,46.2,32.2,29.73,South,178,22.0,22.0,58,0.00,,,0.00,Wunderground v.1.15,2013-02-19 11:36:00,
2013-02-19 03:42:00,46.0,32.0,29.73,South,188,21.0,21.0,58,0.00,,,0.00,Wunderground v.1.15,2013-02-19 11:42:00,
2013-02-19 03:48:00,45.8,32.3,29.72,South,184,20.0,22.0,59,0.00,,,0.00,Wunderground v.1.15,2013-02-19 11:48:00,
2013-02-19 03:54:00,45.5,32.0,29.72,South,187,22.0,25.0,59,0.00,,,0.00,Wunderground v.1.15,2013-02-19 11:54:00,
2013-02-19 04:00:00,45.4,32.3,29.72,SSW,192,23.0,23.0,60,0.00,,,0.00,Wunderground v.1.15,2013-02-19 12:00:00,
2013-02-19 04:06:00,45.2,32.5,29.72,SSW,194,23.0,28.0,61,0.00,,,0.00,Wunderground v.1.15,2013-02-19 12:06:00,
2013-02-19 04:12:00,45.0,32.3,29.72,South,187,23.0,27.0,61,0.00,,,0.00,Wunderground v.1.15,2013-02-19 12:12:00,
2013-02-19 04:18:00,45.0,32.3,29.72,South,184,24.0,27.0,61,0.00,,,0.00,Wunderground v.1.15,2013-02-19 12:18:00,
2013-02-19 04:24:00,45.0,32.8,29.71,SSW,197,25.0,31.0,62,0.00,,,0.00,Wunderground v.1.15,2013-02-19 12:24:00,
2013-02-19 04:30:00,44.7,32.5,29.71,South,187,26.0,26.0,62,0.00,,,0.00,Wunderground v.1.15,2013-02-19 12:30:00,
2013-02-19 04:36:00,44.3,32.9,29.72,SSW,192,26.0,28.0,64,0.00,,,0.00,Wunderground v.1.15,2013-02-19 12:36:00,
2013-02-19 04:42:00,44.2,32.8,29.72,South,190,27.0,32.0,64,0.00,,,0.00,Wunderground v.1.15,2013-02-19 12:42:00,
2013-02-19 04:48:00,43.9,32.5,29.72,South,190,28.0,33.0,64,0.00,,,0.00,Wunderground v.1.15,2013-02-19 12:48:00,
2013-02-19 04:54:00,43.7,32.3,29.72,South,187,27.0,32.0,64,0.00,,,0.00,Wunderground v.1.15,2013-02-19 12:54:00,
2013-02-19 05:00:00,43.9,32.5,29.72,SSW,192,27.0,33.0,64,0.00,,,0.00,Wunderground v.1.15,2013-02-19 13:00:00,
2013-02-19 05:06:00,44.1,32.7,29.72,SSW,193,26.0,33.0,64,0.00,,,0.00,Wunderground v.1.15,2013-02-19 13:06:00,
2013-02-19 05:12:00,44.2,32.8,29.72,SSW,196,27.0,31.0,64,0.00,,,0.00,Wunderground v.1.15,2013-02-19 13:12:00,
2013-02-19 05:18:00,44.4,33.0,29.73,SSW,201,26.0,31.0,64,0.00,,,0.00,Wunderground v.1.15,2013-02-19 13:18:00,
2013-02-19 05:24:00,44.5,32.7,29.73,South,190,25.0,35.0,63,0.00,,,0.00,Wunderground v.1.15,2013-02-19 13:24:00,
2013-02-19 05:30:00,44.3,32.5,29.73,South,187,24.0,24.0,63,0.00,,,0.00,Wunderground v.1.15,2013-02-19 13:30:00,
2013-02-19 05:36:00,44.2,32.8,29.73,SSW,192,25.0,30.0,64,0.00,,,0.00,Wunderground v.1.15,2013-02-19 13:36:00,
2013-02-19 05:42:00,44.0,32.6,29.73,SW,215,24.0,28.0,64,0.00,,,0.00,Wunderground v.1.15,2013-02-19 13:42:00,
2013-02-19 05:48:00,44.1,32.7,29.73,South,190,23.0,28.0,64,0.00,,,0.00,Wunderground v.1.15,2013-02-19 13:48:00,
2013-02-19 05:54:00,44.6,32.8,29.72,SSW,195,23.0,27.0,63,0.00,,,0.00,Wunderground v.1.15,2013-02-19 13:54:00,
2013-02-19 06:00:00,45.0,32.8,29.72,SSW,195,23.0,27.0,62,0.00,,,0.00,Wunderground v.1.15,2013-02-19 14:00:00,
2013-02-19 06:06:00,45.2,32.5,29.73,South,182,23.0,27.0,61,0.00,,,0.00,Wunderground v.1.15,2013-02-19 14:06:00,
2013-02-19 06:12:00,45.2,32.9,29.73,SSW,207,20.0,24.0,62,0.00,,,0.00,Wunderground v.1.15,2013-02-19 14:12:00,
2013-02-19 06:18:00,45.5,32.8,29.73,SSW,213,17.0,24.0,61,0.00,,,0.00,Wunderground v.1.15,2013-02-19 14:18:00,
2013-02-19 06:24:00,45.9,32.4,29.72,SSW,208,15.0,24.0,59,0.00,,,0.00,Wunderground v.1.15,2013-02-19 14:24:00,
2013-02-19 06:30:00,46.3,32.3,29.72,SW,234,18.0,21.0,58,0.00,,,0.00,Wunderground v.1.15,2013-02-19 14:30:00,
2013-02-19 06:36:00,46.9,32.0,29.72,SSW,213,19.0,22.0,56,0.00,,,0.00,Wunderground v.1.15,2013-02-19 14:36:00,
2013-02-19 06:42:00,47.1,31.7,29.72,SSW,200,17.0,18.0,55,0.00,,,0.00,Wunderground v.1.15,2013-02-19 14:42:00,
2013-02-19 06:48:00,46.9,32.0,29.73,SSW,199,15.0,18.0,56,0.00,,,0.00,Wunderground v.1.15,2013-02-19 14:48:00,
2013-02-19 06:54:00,46.7,31.4,29.73,SW,220,14.0,16.0,55,0.00,,,0.00,Wunderground v.1.15,2013-02-19 14:54:00,
2013-02-19 07:00:00,47.0,31.7,29.73,SSW,213,15.0,15.0,55,0.00,,,0.00,Wunderground v.1.15,2013-02-19 15:00:00,
2013-02-19 07:06:00,47.2,31.4,29.72,SW,217,16.0,16.0,54,0.00,,,0.00,Wunderground v.1.15,2013-02-19 15:06:00,
2013-02-19 07:12:00,47.2,31.4,29.73,SW,232,16.0,16.0,54,0.00,,,0.00,Wunderground v.1.15,2013-02-19 15:12:00,
2013-02-19 07:18:00,47.2,31.4,29.73,SW,223,17.0,20.0,54,0.00,,,0.00,Wunderground v.1.15,2013-02-19 15:18:00,
2013-02-19 07:24:00,47.2,30.9,29.73,SW,221,17.0,21.0,53,0.00,,,0.00,Wunderground v.1.15,2013-02-19 15:24:00,
2013-02-19 07:30:00,47.1,31.3,29.73,SSW,203,18.0,18.0,54,0.00,,,0.00,Wunderground v.1.15,2013-02-19 15:30:00,
2013-02-19 07:36:00,47.2,30.9,29.73,SW,218,18.0,24.0,53,0.00,,,0.00,Wunderground v.1.15,2013-02-19 15:36:00,
2013-02-19 07:42:00,47.2,30.9,29.73,South,169,16.0,22.0,53,0.00,,,0.00,Wunderground v.1.15,2013-02-19 15:42:00,
2013-02-19 07:48:00,47.5,30.7,29.74,SSW,199,17.0,22.0,52,0.00,,,0.00,Wunderground v.1.15,2013-02-19 15:48:00,
2013-02-19 07:54:00,47.9,30.6,29.74,SSW,207,17.0,18.0,51,0.00,,,0.00,Wunderground v.1.15,2013-02-19 15:54:00,
2013-02-19 08:00:00,48.8,30.5,29.73,South,188,16.0,16.0,49,0.00,,,0.00,Wunderground v.1.15,2013-02-19 16:00:00,
2013-02-19 08:06:00,49.7,30.8,29.73,SSW,200,16.0,21.0,48,0.00,,,0.00,Wunderground v.1.15,2013-02-19 16:06:00,
2013-02-19 08:12:00,50.0,31.6,29.73,South,183,17.0,17.0,49,0.00,,,0.00,Wunderground v.1.15,2013-02-19 16:12:00,
2013-02-19 08:18:00,50.2,31.2,29.73,SW,214,16.0,24.0,48,0.00,,,0.00,Wunderground v.1.15,2013-02-19 16:18:00,
2013-02-19 08:24:00,50.5,30.5,29.73,SW,225,17.0,18.0,46,0.00,,,0.00,Wunderground v.1.15,2013-02-19 16:24:00,
2013-02-19 08:30:00,50.8,30.7,29.73,SW,229,14.0,14.0,46,0.00,,,0.00,Wunderground v.1.15,2013-02-19 16:30:00,
2013-02-19 08:36:00,51.0,30.4,29.73,WSW,247,9.0,14.0,45,0.00,,,0.00,Wunderground v.1.15,2013-02-19 16:36:00,
2013-02-19 08:42:00,51.2,30.0,29.73,West,276,12.0,15.0,44,0.00,,,0.00,Wunderground v.1.15,2013-02-19 16:42:00,
2013-02-19 08:48:00,51.4,29.6,29.73,WSW,242,13.0,15.0,43,0.00,,,0.00,Wunderground v.1.15,2013-02-19 16:48:00,
2013-02-19 08:54:00,51.5,29.1,29.72,West,259,12.0,20.0,42,0.00,,,0.00,Wunderground v.1.15,2013-02-19 16:54:00,
2013-02-19 09:00:00,51.6,29.2,29.72,SW,228,13.0,20.0,42,0.00,,,0.00,Wunderground v.1.15,2013-02-19 17:00:00,
2013-02-19 09:06:00,51.2,28.9,29.72,SW,226,16.0,20.0,42,0.00,,,0.00,Wunderground v.1.15,2013-02-19 17:06:00,
2013-02-19 09:12:00,50.6,28.3,29.72,WSW,237,18.0,19.0,42,0.00,,,0.00,Wunderground v.1.15,2013-02-19 17:12:00,
2013-02-19 09:18:00,50.3,28.1,29.72,SW,215,18.0,22.0,42,0.00,,,0.00,Wunderground v.1.15,2013-02-19 17:18:00,
2013-02-19 09:24:00,50.3,28.1,29.71,SW,217,18.0,24.0,42,0.00,,,0.00,Wunderground v.1.15,2013-02-19 17:24:00,
2013-02-19 09:30:00,50.4,28.1,29.71,SSW,198,18.0,20.0,42,0.00,,,0.00,Wunderground v.1.15,2013-02-19 17:30:00,
2013-02-19 09:36:00,51.7,28.1,29.71,SW,231,18.0,20.0,40,0.00,,,0.00,Wunderground v.1.15,2013-02-19 17:36:00,
2013-02-19 09:42:00,53.2,28.2,29.71,SW,215,18.0,20.0,38,0.00,,,0.00,Wunderground v.1.15,2013-02-19 17:42:00,
2013-02-19 09:48:00,54.1,28.4,29.71,SW,223,16.0,20.0,37,0.00,,,0.00,Wunderground v.1.15,2013-02-19 17:48:00,
2013-02-19 09:54:00,55.1,28.6,29.70,SSW,197,16.0,18.0,36,0.00,,,0.00,Wunderground v.1.15,2013-02-19 17:54:00,
2013-02-19 10:00:00,55.1,27.9,29.70,SSW,197,18.0,22.0,35,0.00,,,0.00,Wunderground v.1.15,2013-02-19 18:00:00,
2013-02-19 10:06:00,55.5,27.6,29.70,SSW,212,17.0,22.0,34,0.00,,,0.00,Wunderground v.1.15,2013-02-19 18:06:00,
2013-02-19 10:12:00,56.0,28.0,29.69,SW,234,15.0,17.0,34,0.00,,,0.00,Wunderground v.1.15,2013-02-19 18:12:00,
2013-02-19 10:18:00,56.4,28.3,29.69,SW,227,14.0,17.0,34,0.00,,,0.00,Wunderground v.1.15,2013-02-19 18:18:00,
2013-02-19 10:24:00,56.6,27.8,29.69,WSW,240,15.0,15.0,33,0.00,,,0.00,Wunderground v.1.15,2013-02-19 18:24:00,
2013-02-19 10:30:00,56.4,27.6,29.69,WSW,241,19.0,28.0,33,0.00,,,0.00,Wunderground v.1.15,2013-02-19 18:30:00,
2013-02-19 10:36:00,56.4,27.6,29.69,SW,225,21.0,28.0,33,0.00,,,0.00,Wunderground v.1.15,2013-02-19 18:36:00,
2013-02-19 10:42:00,57.0,25.8,29.69,SW,226,20.0,26.0,30,0.00,,,0.00,Wunderground v.1.15,2013-02-19 18:42:00,
2013-02-19 10:48:00,56.4,26.9,29.69,SW,227,21.0,26.0,32,0.00,,,0.00,Wunderground v.1.15,2013-02-19 18:48:00,
2013-02-19 10:54:00,57.3,26.9,29.68,SSW,195,20.0,24.0,31,0.00,,,0.00,Wunderground v.1.15,2013-02-19 18:54:00,
2013-02-19 11:00:00,57.5,27.1,29.68,SW,235,21.0,21.0,31,0.00,,,0.00,Wunderground v.1.15,2013-02-19 19:00:00,
2013-02-19 11:06:00,56.8,27.2,29.68,SW,219,20.0,24.0,32,0.00,,,0.00,Wunderground v.1.15,2013-02-19 19:06:00,
2013-02-19 11:12:00,56.9,27.3,29.68,SW,223,20.0,20.0,32,0.00,,,0.00,Wunderground v.1.15,2013-02-19 19:12:00,
2013-02-19 11:18:00,56.9,27.3,29.67,SSW,194,18.0,20.0,32,0.00,,,0.00,Wunderground v.1.15,2013-02-19 19:18:00,
2013-02-19 11:24:00,57.2,27.6,29.67,SSW,209,18.0,21.0,32,0.00,,,0.00,Wunderground v.1.15,2013-02-19 19:24:00,
2013-02-19 11:30:00,57.1,27.5,29.67,SW,219,18.0,21.0,32,0.00,,,0.00,Wunderground v.1.15,2013-02-19 19:30:00,
2013-02-19 11:36:00,56.4,26.1,29.66,SW,233,20.0,26.0,31,0.00,,,0.00,Wunderground v.1.15,2013-02-19 19:36:00,
2013-02-19 11:42:00,55.8,26.3,29.66,SW,226,21.0,23.0,32,0.00,,,0.00,Wunderground v.1.15,2013-02-19 19:42:00,
2013-02-19 11:48:00,55.8,26.3,29.66,WSW,248,18.0,23.0,32,0.00,,,0.00,Wunderground v.1.15,2013-02-19 19:48:00,
2013-02-19 11:54:00,55.3,25.9,29.65,SW,214,21.0,26.0,32,0.00,,,0.00,Wunderground v.1.15,2013-02-19 19:54:00,
2013-02-19 12:00:00,55.0,26.4,29.65,SW,227,23.0,23.0,33,0.00,,,0.00,Wunderground v.1.15,2013-02-19 20:00:00,
2013-02-19 12:06:00,55.3,25.9,29.65,SW,219,21.0,29.0,32,0.00,,,0.00,Wunderground v.1.15,2013-02-19 20:06:00,
2013-02-19 12:12:00,55.5,25.3,29.65,SSW,211,20.0,25.0,31,0.00,,,0.00,Wunderground v.1.15,2013-02-19 20:12:00,
2013-02-19 12:18:00,55.4,25.2,29.65,SW,221,21.0,25.0,31,0.00,,,0.00,Wunderground v.1.15,2013-02-19 20:18:00,
2013-02-19 12:24:00,55.1,25.0,29.64,SW,225,22.0,22.0,31,0.00,,,0.00,Wunderground v.1.15,2013-02-19 20:24:00,
2013-02-19 12:30:00,55.7,25.5,29.64,WSW,255,21.0,24.0,31,0.00,,,0.00,Wunderground v.1.15,2013-02-19 20:30:00,
2013-02-19 12:36:00,56.3,26.0,29.63,SW,225,20.0,31.0,31,0.00,,,0.00,Wunderground v.1.15,2013-02-19 20:36:00,
2013-02-19 12:42:00,56.7,25.6,29.63,SW,222,18.0,20.0,30,0.00,,,0.00,Wunderground v.1.15,2013-02-19 20:42:00,
2013-02-19 12:48:00,56.9,24.9,29.62,SW,224,18.0,20.0,29,0.00,,,0.00,Wunderground v.1.15,2013-02-19 20:48:00,
2013-02-19 12:54:00,56.0,25.0,29.62,WSW,252,21.0,30.0,30,0.00,,,0.00,Wunderground v.1.15,2013-02-19 20:54:00,
2013-02-19 13:00:00,55.8,24.8,29.61,SW,234,21.0,21.0,30,0.00,,,0.00,Wunderground v.1.15,2013-02-19 21:00:00,
2013-02-19 13:06:00,56.4,25.3,29.62,SW,231,22.0,29.0,30,0.00,,,0.00,Wunderground v.1.15,2013-02-19 21:06:00,
2013-02-19 13:12:00,55.7,24.7,29.62,SW,222,23.0,27.0,30,0.00,,,0.00,Wunderground v.1.15,2013-02-19 21:12:00,
2013-02-19 13:18:00,55.4,25.2,29.62,SW,229,22.0,27.0,31,0.00,,,0.00,Wunderground v.1.15,2013-02-19 21:18:00,
2013-02-19 13:24:00,55.0,24.1,29.62,West,271,20.0,32.0,30,0.00,,,0.00,Wunderground v.1.15,2013-02-19 21:24:00,
2013-02-19 13:30:00,55.1,25.0,29.62,West,259,21.0,21.0,31,0.00,,,0.00,Wunderground v.1.15,2013-02-19 21:30:00,
2013-02-19 13:36:00,55.2,24.3,29.62,SW,229,19.0,22.0,30,0.00,,,0.00,Wunderground v.1.15,2013-02-19 21:36:00,
2013-02-19 13:42:00,55.0,24.1,29.62,WSW,242,19.0,25.0,30,0.00,,,0.00,Wunderground v.1.15,2013-02-19 21:42:00,
2013-02-19 13:48:00,54.9,24.8,29.62,West,266,19.0,25.0,31,0.00,,,0.00,Wunderground v.1.15,2013-02-19 21:48:00,
2013-02-19 13:54:00,55.3,24.4,29.62,SW,236,18.0,31.0,30,0.00,,,0.00,Wunderground v.1.15,2013-02-19 21:54:00,
2013-02-19 14:00:00,54.6,24.5,29.62,WSW,254,19.0,19.0,31,0.00,,,0.00,Wunderground v.1.15,2013-02-19 22:00:00,
2013-02-19 14:06:00,53.7,23.7,29.62,WSW,242,19.0,23.0,31,0.00,,,0.00,Wunderground v.1.15,2013-02-19 22:06:00,
2013-02-19 14:12:00,53.3,24.2,29.63,WSW,254,19.0,24.0,32,0.00,,,0.00,Wunderground v.1.15,2013-02-19 22:12:00,
2013-02-19 14:18:00,52.9,24.5,29.63,West,264,17.0,24.0,33,0.00,,,0.00,Wunderground v.1.15,2013-02-19 22:18:00,
2013-02-19 14:24:00,52.4,24.8,29.63,WSW,251,17.0,21.0,34,0.00,,,0.00,Wunderground v.1.15,2013-02-19 22:24:00,
2013-02-19 14:30:00,51.9,24.4,29.63,WSW,242,19.0,25.0,34,0.00,,,0.00,Wunderground v.1.15,2013-02-19 22:30:00,
2013-02-19 15:34:00,50.5,20.9,29.63,WSW,254,15.0,22.0,31,0.00,,,0.00,Wunderground v.1.15,2013-02-19 23:34:00,
2013-02-19 15:40:00,50.2,21.4,29.63,WSW,252,16.0,22.0,32,0.00,,,0.00,Wunderground v.1.15,2013-02-19 23:40:00,
2013-02-19 15:46:00,49.9,21.9,29.63,WSW,251,16.0,27.0,33,0.00,,,0.00,Wunderground v.1.15,2013-02-19 23:46:00,
2013-02-19 15:52:00,49.4,21.5,29.62,WSW,252,16.0,27.0,33,0.00,,,0.00,Wunderground v.1.15,2013-02-19 23:52:00,
2013-02-19 15:58:00,49.3,20.6,29.61,WSW,254,17.0,24.0,32,0.00,,,0.00,Wunderground v.1.15,2013-02-19 23:58:00,
2013-02-19 16:04:00,49.2,20.6,29.61,West,259,16.0,19.0,32,0.00,,,0.00,Wunderground v.1.15,2013-02-20 00:04:00,
2013-02-19 16:10:00,49.2,20.6,29.61,WSW,252,15.0,15.0,32,0.00,,,0.00,Wunderground v.1.15,2013-02-20 00:10:00,
2013-02-19 16:16:00,49.2,19.8,29.61,WSW,255,15.0,15.0,31,0.00,,,0.00,Wunderground v.1.15,2013-02-20 00:16:00,
2013-02-19 16:22:00,49.1,19.0,29.61,West,263,15.0,20.0,30,0.00,,,0.00,Wunderground v.1.15,2013-02-20 00:22:00,
2013-02-19 16:28:00,49.0,19.6,29.61,West,263,16.0,20.0,31,0.00,,,0.00,Wunderground v.1.15,2013-02-20 00:28:00,
2013-02-19 16:34:00,48.7,17.8,29.61,West,264,14.0,23.0,29,0.00,,,0.00,Wunderground v.1.15,2013-02-20 00:34:00,
2013-02-19 16:40:00,48.5,17.6,29.61,West,261,12.0,16.0,29,0.00,,,0.00,Wunderground v.1.15,2013-02-20 00:40:00,
2013-02-19 16:46:00,48.3,15.8,29.61,SW,229,12.0,16.0,27,0.00,,,0.00,Wunderground v.1.15,2013-02-20 00:46:00,
2013-02-19 16:52:00,48.1,14.8,29.60,WSW,245,14.0,14.0,26,0.00,,,0.00,Wunderground v.1.15,2013-02-20 00:52:00,
2013-02-19 16:58:00,48.0,14.7,29.60,SW,232,14.0,15.0,26,0.00,,,0.00,Wunderground v.1.15,2013-02-20 00:58:00,
2013-02-19 17:04:00,47.9,14.6,29.60,SW,236,14.0,19.0,26,0.00,,,0.00,Wunderground v.1.15,2013-02-20 01:04:00,
2013-02-19 17:10:00,47.9,15.5,29.60,SW,228,15.0,15.0,27,0.00,,,0.00,Wunderground v.1.15,2013-02-20 01:10:00,
2013-02-19 17:16:00,47.9,14.6,29.60,SW,229,13.0,15.0,26,0.00,,,0.00,Wunderground v.1.15,2013-02-20 01:16:00,
2013-02-19 17:22:00,47.8,14.5,29.60,SW,234,12.0,15.0,26,0.00,,,0.00,Wunderground v.1.15,2013-02-20 01:22:00,
2013-02-19 17:28:00,47.8,14.5,29.61,WSW,254,13.0,19.0,26,0.00,,,0.00,Wunderground v.1.15,2013-02-20 01:28:00,
2013-02-19 17:34:00,47.6,15.2,29.61,WSW,241,13.0,15.0,27,0.00,,,0.00,Wunderground v.1.15,2013-02-20 01:34:00,
2013-02-19 17:40:00,47.5,15.1,29.61,WSW,250,13.0,16.0,27,0.00,,,0.00,Wunderground v.1.15,2013-02-20 01:40:00,
2013-02-19 17:46:00,47.2,15.7,29.60,WSW,255,11.0,16.0,28,0.00,,,0.00,Wunderground v.1.15,2013-02-20 01:46:00,